Location: *
(46.4833°N, 7.6667°E)
Time: 19:28:03
(UTC+00:00)

Cosmos 2263 Rocket - Pass Details

Date: 27 February 2020
Orbit: 822 x 850 km, 71.0° (Epoch: 29 March)

Event Time Altitude Azimuth Distance (km) Brightness Sun altitude
Rises 20:36:54 0° 337° (NNW) 3,417 6.0 -35.1°
Reaches altitude 10° 20:39:34 10° 347° (NNW) 2,481 5.1 -35.5°
Enters shadow 20:41:32 20° 359° (N) 1,871 4.2 -35.8°
